Time,TemperatureF,DewpointF,PressureIn,WindDirection,WindDirectionDegrees,WindSpeedMPH,WindSpeedGustMPH,Humidity,HourlyPrecipIn,Conditions,Clouds,dailyrainin,SoftwareType,DateUTC
2013-02-16 00:01:00,26.0,24.0,30.37,ESE,113,0.0,-999.0,93,-99.99,,,-99.99,,2013-02-16 08:01:00,
2013-02-16 00:11:00,26.0,24.0,30.37,ESE,113,0.0,-999.0,93,-99.99,,,-99.99,,2013-02-16 08:11:00,
2013-02-16 00:21:00,27.0,26.0,30.37,ESE,113,0.0,-999.0,94,-99.99,,,-99.99,,2013-02-16 08:21:00,
2013-02-16 00:31:00,26.0,24.0,30.37,ESE,113,0.0,-999.0,93,-99.99,,,-99.99,,2013-02-16 08:31:00,
2013-02-16 00:41:00,26.0,24.0,30.37,ESE,113,0.0,-999.0,93,-99.99,,,-99.99,,2013-02-16 08:41:00,
2013-02-16 00:52:00,26.0,24.0,30.36,South,191,0.0,-999.0,93,-99.99,,,-99.99,,2013-02-16 08:52:00,
2013-02-16 01:01:00,25.0,23.0,30.36,South,191,0.0,-999.0,93,-99.99,,,-99.99,,2013-02-16 09:01:00,
2013-02-16 01:11:00,25.0,23.0,30.36,South,191,0.0,-999.0,93,-99.99,,,-99.99,,2013-02-16 09:11:00,
2013-02-16 01:21:00,25.0,23.0,30.36,South,191,0.0,-999.0,93,-99.99,,,-99.99,,2013-02-16 09:21:00,
2013-02-16 01:31:00,26.0,25.0,30.36,South,191,0.0,-999.0,94,-99.99,,,-99.99,,2013-02-16 09:31:00,
2013-02-16 01:42:00,26.0,25.0,30.36,South,191,0.0,-999.0,94,-99.99,,,-99.99,,2013-02-16 09:42:00,
2013-02-16 01:51:00,25.0,24.0,30.36,South,191,0.0,-999.0,94,-99.99,,,-99.99,,2013-02-16 09:51:00,
2013-02-16 02:01:00,25.0,24.0,30.36,South,191,0.0,-999.0,94,-99.99,,,-99.99,,2013-02-16 10:01:00,
2013-02-16 02:11:00,25.0,24.0,30.36,South,191,0.0,-999.0,94,-99.99,,,-99.99,,2013-02-16 10:11:00,
2013-02-16 02:21:00,25.0,24.0,30.35,South,191,0.0,-999.0,94,-99.99,,,-99.99,,2013-02-16 10:21:00,
2013-02-16 02:31:00,25.0,24.0,30.35,South,191,0.0,-999.0,94,-99.99,,,-99.99,,2013-02-16 10:31:00,
2013-02-16 02:41:00,25.0,24.0,30.35,South,191,0.0,-999.0,94,-99.99,,,-99.99,,2013-02-16 10:41:00,
2013-02-16 02:51:00,24.0,23.0,30.35,South,191,0.0,-999.0,94,-99.99,,,-99.99,,2013-02-16 10:51:00,
2013-02-16 03:02:00,24.0,23.0,30.35,South,191,0.0,-999.0,94,-99.99,,,-99.99,,2013-02-16 11:02:00,
2013-02-16 03:11:00,24.0,23.0,30.35,South,191,0.0,-999.0,94,-99.99,,,-99.99,,2013-02-16 11:11:00,
2013-02-16 03:22:00,24.0,23.0,30.34,South,191,0.0,-999.0,94,-99.99,,,-99.99,,2013-02-16 11:22:00,
2013-02-16 03:31:00,23.0,21.0,30.34,South,191,0.0,-999.0,93,-99.99,,,-99.99,,2013-02-16 11:31:00,
2013-02-16 03:42:00,23.0,21.0,30.34,South,191,0.0,-999.0,93,-99.99,,,-99.99,,2013-02-16 11:42:00,
2013-02-16 03:52:00,23.0,21.0,30.34,South,191,0.0,-999.0,93,-99.99,,,-99.99,,2013-02-16 11:52:00,
2013-02-16 04:01:00,23.0,22.0,30.33,South,191,0.0,-999.0,94,-99.99,,,-99.99,,2013-02-16 12:01:00,
2013-02-16 04:12:00,23.0,22.0,30.33,South,191,0.0,-999.0,94,-99.99,,,-99.99,,2013-02-16 12:12:00,
2013-02-16 04:22:00,23.0,22.0,30.32,South,191,0.0,-999.0,94,-99.99,,,-99.99,,2013-02-16 12:22:00,
2013-02-16 04:32:00,23.0,22.0,30.32,South,191,0.0,-999.0,94,-99.99,,,-99.99,,2013-02-16 12:32:00,
2013-02-16 04:42:00,23.0,22.0,30.32,South,191,0.0,-999.0,94,-99.99,,,-99.99,,2013-02-16 12:42:00,
2013-02-16 04:52:00,23.0,22.0,30.32,South,191,0.0,-999.0,94,-99.99,,,-99.99,,2013-02-16 12:52:00,
2013-02-16 05:01:00,23.0,22.0,30.31,SW,236,0.0,-999.0,94,-99.99,,,-99.99,,2013-02-16 13:01:00,
2013-02-16 05:11:00,22.0,21.0,30.30,SW,236,0.0,-999.0,95,-99.99,,,-99.99,,2013-02-16 13:11:00,
2013-02-16 05:21:00,22.0,21.0,30.30,SW,236,0.0,-999.0,95,-99.99,,,-99.99,,2013-02-16 13:21:00,
2013-02-16 05:31:00,23.0,22.0,30.30,SW,236,0.0,-999.0,94,-99.99,,,-99.99,,2013-02-16 13:31:00,
2013-02-16 05:41:00,23.0,22.0,30.30,SW,236,0.0,-999.0,94,-99.99,,,-99.99,,2013-02-16 13:41:00,
2013-02-16 05:51:00,22.0,21.0,30.30,SW,236,0.0,-999.0,94,-99.99,,,-99.99,,2013-02-16 13:51:00,
2013-02-16 06:01:00,22.0,21.0,30.30,SW,236,0.0,-999.0,94,-99.99,,,-99.99,,2013-02-16 14:01:00,
2013-02-16 06:11:00,22.0,21.0,30.30,SW,236,0.0,-999.0,94,-99.99,,,-99.99,,2013-02-16 14:11:00,
2013-02-16 06:21:00,22.0,21.0,30.29,SW,236,0.0,-999.0,95,-99.99,,,-99.99,,2013-02-16 14:21:00,
2013-02-16 06:32:00,22.0,21.0,30.29,SW,236,0.0,-999.0,94,-99.99,,,-99.99,,2013-02-16 14:32:00,
2013-02-16 06:41:00,22.0,21.0,30.29,SW,236,0.0,-999.0,94,-99.99,,,-99.99,,2013-02-16 14:41:00,
2013-02-16 06:52:00,22.0,21.0,30.29,SW,236,0.0,-999.0,94,-99.99,,,-99.99,,2013-02-16 14:52:00,
2013-02-16 07:01:00,20.0,18.0,30.29,SW,236,0.0,-999.0,93,-99.99,,,-99.99,,2013-02-16 15:01:00,
2013-02-16 07:11:00,20.0,18.0,30.29,SW,236,0.0,-999.0,93,-99.99,,,-99.99,,2013-02-16 15:11:00,
2013-02-16 07:21:00,21.0,20.0,30.29,SW,236,0.0,-999.0,94,-99.99,,,-99.99,,2013-02-16 15:21:00,
2013-02-16 07:31:00,22.0,21.0,30.29,SW,236,0.0,-999.0,95,-99.99,,,-99.99,,2013-02-16 15:31:00,
2013-02-16 07:41:00,22.0,21.0,30.29,SW,236,0.0,-999.0,95,-99.99,,,-99.99,,2013-02-16 15:41:00,
2013-02-16 07:51:00,23.0,22.0,30.28,SW,236,0.0,-999.0,94,-99.99,,,-99.99,,2013-02-16 15:51:00,
2013-02-16 08:01:00,24.0,23.0,30.28,SW,236,0.0,-999.0,95,-99.99,,,-99.99,,2013-02-16 16:01:00,
2013-02-16 08:11:00,24.0,23.0,30.28,SW,236,0.0,-999.0,95,-99.99,,,-99.99,,2013-02-16 16:11:00,
2013-02-16 08:21:00,25.0,24.0,30.28,SW,236,0.0,-999.0,95,-99.99,,,-99.99,,2013-02-16 16:21:00,
2013-02-16 08:32:00,26.0,25.0,30.28,SW,236,0.0,-999.0,95,-99.99,,,-99.99,,2013-02-16 16:32:00,
2013-02-16 08:41:00,26.0,25.0,30.28,SW,236,0.0,-999.0,95,-99.99,,,-99.99,,2013-02-16 16:41:00,
2013-02-16 08:51:00,26.0,25.0,30.28,SW,236,0.0,-999.0,95,-99.99,,,-99.99,,2013-02-16 16:51:00,
2013-02-16 09:01:00,28.0,27.0,30.27,SW,236,0.0,-999.0,95,-99.99,,,-99.99,,2013-02-16 17:01:00,
2013-02-16 09:11:00,28.0,27.0,30.27,SW,236,0.0,-999.0,95,-99.99,,,-99.99,,2013-02-16 17:11:00,
2013-02-16 09:21:00,28.0,27.0,30.27,SW,236,0.0,-999.0,95,-99.99,,,-99.99,,2013-02-16 17:21:00,
2013-02-16 09:31:00,30.0,28.0,30.27,SW,236,0.0,-999.0,94,-99.99,,,-99.99,,2013-02-16 17:31:00,
2013-02-16 09:41:00,30.0,28.0,30.27,SW,236,0.0,-999.0,94,-99.99,,,-99.99,,2013-02-16 17:41:00,
2013-02-16 09:52:00,31.0,29.0,30.26,SW,236,0.0,-999.0,93,-99.99,,,-99.99,,2013-02-16 17:52:00,
2013-02-16 10:01:00,34.0,31.0,30.26,SW,236,0.0,-999.0,90,-99.99,,,-99.99,,2013-02-16 18:01:00,
2013-02-16 10:11:00,36.0,31.0,30.25,South,190,1.0,-999.0,83,-99.99,,,-99.99,,2013-02-16 18:11:00,
2013-02-16 10:21:00,36.0,31.0,30.25,South,190,1.0,-999.0,83,-99.99,,,-99.99,,2013-02-16 18:21:00,
2013-02-16 10:32:00,37.0,33.0,30.25,South,190,0.0,-999.0,84,-99.99,,,-99.99,,2013-02-16 18:32:00,
2013-02-16 10:41:00,37.0,33.0,30.25,South,190,0.0,-999.0,84,-99.99,,,-99.99,,2013-02-16 18:41:00,
2013-02-16 10:51:00,37.0,33.0,30.25,South,190,0.0,-999.0,84,-99.99,,,-99.99,,2013-02-16 18:51:00,
2013-02-16 11:02:00,45.0,34.0,30.23,SE,134,0.0,-999.0,66,-99.99,,,-99.99,,2013-02-16 19:02:00,
2013-02-16 11:11:00,45.0,34.0,30.23,SE,134,0.0,-999.0,66,-99.99,,,-99.99,,2013-02-16 19:11:00,
2013-02-16 11:21:00,47.0,35.0,30.22,SSE,162,0.0,-999.0,62,-99.99,,,-99.99,,2013-02-16 19:21:00,
2013-02-16 11:31:00,47.0,34.0,30.21,ESE,111,1.0,-999.0,60,-99.99,,,-99.99,,2013-02-16 19:31:00,
2013-02-16 11:42:00,47.0,34.0,30.21,ESE,111,1.0,-999.0,60,-99.99,,,-99.99,,2013-02-16 19:42:00,
2013-02-16 11:52:00,49.0,35.0,30.20,SSE,160,0.0,-999.0,58,-99.99,,,-99.99,,2013-02-16 19:52:00,
2013-02-16 12:01:00,49.0,34.0,30.19,SSW,209,2.0,-999.0,57,-99.99,,,-99.99,,2013-02-16 20:01:00,
2013-02-16 12:11:00,50.0,35.0,30.18,SSW,198,6.0,-999.0,57,-99.99,,,-99.99,,2013-02-16 20:11:00,
2013-02-16 12:21:00,50.0,35.0,30.18,SSW,198,6.0,-999.0,57,-99.99,,,-99.99,,2013-02-16 20:21:00,
2013-02-16 12:32:00,50.0,34.0,30.17,SW,223,6.0,-999.0,55,-99.99,,,-99.99,,2013-02-16 20:32:00,
2013-02-16 12:42:00,50.0,34.0,30.17,SW,223,6.0,-999.0,55,-99.99,,,-99.99,,2013-02-16 20:42:00,
2013-02-16 12:52:00,50.0,35.0,30.16,SSW,213,5.0,-999.0,56,-99.99,,,-99.99,,2013-02-16 20:52:00,
2013-02-16 13:02:00,50.0,35.0,30.15,SSW,199,5.0,-999.0,56,-99.99,,,-99.99,,2013-02-16 21:02:00,
2013-02-16 13:11:00,50.0,35.0,30.15,SSW,199,5.0,-999.0,56,-99.99,,,-99.99,,2013-02-16 21:11:00,
2013-02-16 13:21:00,51.0,35.0,30.14,SW,215,4.0,-999.0,54,-99.99,,,-99.99,,2013-02-16 21:21:00,
2013-02-16 13:31:00,52.0,35.0,30.13,SW,229,4.0,-999.0,52,-99.99,,,-99.99,,2013-02-16 21:31:00,
2013-02-16 13:41:00,52.0,35.0,30.13,SW,229,4.0,-999.0,52,-99.99,,,-99.99,,2013-02-16 21:41:00,
2013-02-16 13:52:00,51.0,35.0,30.12,SW,231,3.0,-999.0,54,-99.99,,,-99.99,,2013-02-16 21:52:00,
2013-02-16 14:01:00,50.0,34.0,30.11,SSW,203,4.0,-999.0,55,-99.99,,,-99.99,,2013-02-16 22:01:00,
2013-02-16 14:11:00,50.0,34.0,30.11,SSW,203,4.0,-999.0,55,-99.99,,,-99.99,,2013-02-16 22:11:00,
2013-02-16 14:21:00,50.0,35.0,30.10,South,176,3.0,-999.0,56,-99.99,,,-99.99,,2013-02-16 22:21:00,
2013-02-16 14:31:00,50.0,34.0,30.09,SW,224,2.0,-999.0,55,-99.99,,,-99.99,,2013-02-16 22:31:00,
2013-02-16 14:42:00,50.0,34.0,30.09,SW,224,2.0,-999.0,55,-99.99,,,-99.99,,2013-02-16 22:42:00,
2013-02-16 14:51:00,50.0,34.0,30.09,SSW,200,1.0,-999.0,54,-99.99,,,-99.99,,2013-02-16 22:51:00,
2013-02-16 15:02:00,50.0,34.0,30.07,SSW,210,4.0,-999.0,54,-99.99,,,-99.99,,2013-02-16 23:02:00,
2013-02-16 15:11:00,50.0,34.0,30.07,SSW,210,4.0,-999.0,54,-99.99,,,-99.99,,2013-02-16 23:11:00,
2013-02-16 15:21:00,50.0,34.0,30.07,SSW,210,4.0,-999.0,54,-99.99,,,-99.99,,2013-02-16 23:21:00,
2013-02-16 15:31:00,48.0,34.0,30.07,WNW,292,4.0,-999.0,59,-99.99,,,-99.99,,2013-02-16 23:31:00,
2013-02-16 15:41:00,48.0,34.0,30.07,WNW,292,4.0,-999.0,59,-99.99,,,-99.99,,2013-02-16 23:41:00,
2013-02-16 15:52:00,47.0,34.0,30.06,WNW,302,4.0,-999.0,60,-99.99,,,-99.99,,2013-02-16 23:52:00,
2013-02-16 16:01:00,47.0,34.0,30.05,NW,307,2.0,-999.0,61,-99.99,,,-99.99,,2013-02-17 00:01:00,
2013-02-16 16:11:00,47.0,34.0,30.05,NW,307,2.0,-999.0,61,-99.99,,,-99.99,,2013-02-17 00:11:00,
2013-02-16 16:21:00,46.0,35.0,30.05,WNW,284,4.0,-999.0,64,-99.99,,,-99.99,,2013-02-17 00:21:00,
2013-02-16 16:31:00,45.0,35.0,30.05,WNW,286,6.0,-999.0,69,-99.99,,,-99.99,,2013-02-17 00:31:00,
2013-02-16 16:41:00,45.0,35.0,30.05,WNW,286,6.0,-999.0,69,-99.99,,,-99.99,,2013-02-17 00:41:00,
2013-02-16 16:51:00,45.0,35.0,30.05,WNW,286,6.0,-999.0,69,-99.99,,,-99.99,,2013-02-17 00:51:00,
2013-02-16 17:01:00,42.0,38.0,30.06,West,275,10.0,-999.0,84,-99.99,,,-99.99,,2013-02-17 01:01:00,
2013-02-16 17:11:00,42.0,38.0,30.06,West,275,10.0,-999.0,84,-99.99,,,-99.99,,2013-02-17 01:11:00,
2013-02-16 17:21:00,40.0,37.0,30.06,NW,304,8.0,-999.0,90,-99.99,,,-99.99,,2013-02-17 01:21:00,
2013-02-16 17:31:00,39.0,36.0,30.07,West,275,10.0,-999.0,90,-99.99,,,-99.99,,2013-02-17 01:31:00,
2013-02-16 17:41:00,39.0,36.0,30.07,West,275,10.0,-999.0,90,-99.99,,,-99.99,,2013-02-17 01:41:00,
2013-02-16 17:52:00,38.0,35.0,30.07,West,278,9.0,-999.0,90,-99.99,,,-99.99,,2013-02-17 01:52:00,
2013-02-16 18:01:00,38.0,35.0,30.06,WNW,284,6.0,-999.0,90,-99.99,,,-99.99,,2013-02-17 02:01:00,
2013-02-16 18:11:00,38.0,35.0,30.06,WNW,284,6.0,-999.0,90,-99.99,,,-99.99,,2013-02-17 02:11:00,
2013-02-16 18:21:00,38.0,35.0,30.06,WNW,283,8.0,-999.0,89,-99.99,,,-99.99,,2013-02-17 02:21:00,
2013-02-16 18:31:00,38.0,35.0,30.07,WSW,250,4.0,-999.0,89,-99.99,,,-99.99,,2013-02-17 02:31:00,
2013-02-16 18:41:00,38.0,35.0,30.07,WSW,250,4.0,-999.0,89,-99.99,,,-99.99,,2013-02-17 02:41:00,
2013-02-16 18:51:00,38.0,35.0,30.07,WNW,283,2.0,-999.0,89,-99.99,,,-99.99,,2013-02-17 02:51:00,
2013-02-16 19:01:00,38.0,35.0,30.06,SSW,199,2.0,-999.0,88,-99.99,,,-99.99,,2013-02-17 03:01:00,
2013-02-16 19:11:00,38.0,35.0,30.06,SSW,199,2.0,-999.0,88,-99.99,,,-99.99,,2013-02-17 03:11:00,
2013-02-16 19:21:00,38.0,35.0,30.06,SSW,199,2.0,-999.0,88,-99.99,,,-99.99,,2013-02-17 03:21:00,
2013-02-16 19:31:00,37.0,34.0,30.06,SSW,198,0.0,-999.0,90,-99.99,,,-99.99,,2013-02-17 03:31:00,
2013-02-16 19:41:00,37.0,34.0,30.06,SSW,198,0.0,-999.0,90,-99.99,,,-99.99,,2013-02-17 03:41:00,
2013-02-16 19:52:00,37.0,35.0,30.07,South,177,0.0,-999.0,91,-99.99,,,-99.99,,2013-02-17 03:52:00,
2013-02-16 20:01:00,36.0,34.0,30.07,South,173,2.0,-999.0,92,-99.99,,,-99.99,,2013-02-17 04:01:00,
2013-02-16 20:11:00,37.0,34.0,30.07,SSW,211,6.0,-999.0,89,-99.99,,,-99.99,,2013-02-17 04:11:00,
2013-02-16 20:21:00,37.0,34.0,30.07,SSW,211,6.0,-999.0,89,-99.99,,,-99.99,,2013-02-17 04:21:00,
2013-02-16 20:31:00,37.0,34.0,30.06,SW,220,3.0,-999.0,89,-99.99,,,-99.99,,2013-02-17 04:31:00,
2013-02-16 20:41:00,37.0,34.0,30.06,SW,220,3.0,-999.0,89,-99.99,,,-99.99,,2013-02-17 04:41:00,
2013-02-16 20:51:00,37.0,34.0,30.07,SSE,161,3.0,-999.0,90,-99.99,,,-99.99,,2013-02-17 04:51:00,
2013-02-16 21:01:00,36.0,34.0,30.07,South,178,3.0,-999.0,92,-99.99,,,-99.99,,2013-02-17 05:01:00,
2013-02-16 21:11:00,36.0,34.0,30.07,SSW,201,3.0,-999.0,93,-99.99,,,-99.99,,2013-02-17 05:11:00,
2013-02-16 21:22:00,36.0,34.0,30.07,SSW,201,3.0,-999.0,93,-99.99,,,-99.99,,2013-02-17 05:22:00,
2013-02-16 21:32:00,36.0,34.0,30.07,SSW,211,4.0,-999.0,92,-99.99,,,-99.99,,2013-02-17 05:32:00,
2013-02-16 21:42:00,36.0,34.0,30.07,SSW,211,4.0,-999.0,92,-99.99,,,-99.99,,2013-02-17 05:42:00,
2013-02-16 21:52:00,36.0,34.0,30.07,SSW,193,0.0,-999.0,92,-99.99,,,-99.99,,2013-02-17 05:52:00,
2013-02-16 22:02:00,36.0,34.0,30.06,SSW,192,2.0,-999.0,93,-99.99,,,-99.99,,2013-02-17 06:02:00,
2013-02-16 22:11:00,36.0,34.0,30.06,SSW,192,2.0,-999.0,93,-99.99,,,-99.99,,2013-02-17 06:11:00,
2013-02-16 22:21:00,35.0,33.0,30.07,West,278,2.0,-999.0,93,-99.99,,,-99.99,,2013-02-17 06:21:00,
2013-02-16 22:31:00,34.0,32.0,30.08,West,271,4.0,-999.0,92,-99.99,,,-99.99,,2013-02-17 06:31:00,
2013-02-16 22:41:00,34.0,32.0,30.08,West,271,4.0,-999.0,92,-99.99,,,-99.99,,2013-02-17 06:41:00,
2013-02-16 22:51:00,33.0,31.0,30.08,West,280,4.0,-999.0,94,-99.99,,,-99.99,,2013-02-17 06:51:00,
2013-02-16 23:01:00,34.0,32.0,30.07,WSW,257,3.0,-999.0,93,-99.99,,,-99.99,,2013-02-17 07:01:00,
2013-02-16 23:11:00,33.0,31.0,30.07,West,261,0.0,-999.0,94,-99.99,,,-99.99,,2013-02-17 07:11:00,
2013-02-16 23:21:00,33.0,31.0,30.07,West,261,0.0,-999.0,94,-99.99,,,-99.99,,2013-02-17 07:21:00,
2013-02-16 23:31:00,34.0,32.0,30.07,West,263,0.0,-999.0,94,-99.99,,,-99.99,,2013-02-17 07:31:00,
2013-02-16 23:41:00,34.0,32.0,30.07,West,263,0.0,-999.0,94,-99.99,,,-99.99,,2013-02-17 07:41:00,
2013-02-16 23:51:00,33.0,31.0,30.08,West,263,0.0,-999.0,94,-99.99,,,-99.99,,2013-02-17 07:51:00,